This is the latest recevied weather packets stored in our database for station/object CQ0XVC-11. If no packets are shown the sender has not sent any weather packets the latest 10 day(s).
| Time | Temp. | Humidity | Pressure | Rain* | Wind** | Luminosity | Snow |
|---|---|---|---|---|---|---|---|
| 1777740361 | 17.22° C | 64% | 1001.8 hPa | 0 mm | - | - | - |
| 1777740329 | 17.22° C | 64% | 1001.8 hPa | 0 mm | - | - | - |
| 1777740078 | 16.67° C | 64% | 1002.1 hPa | 0 mm | - | - | - |
| 1777740026 | 16.67° C | 64% | 1002.1 hPa | 0 mm | - | - | - |
| 1777739762 | 16.67° C | 66% | 1001.7 hPa | 0 mm | - | - | - |
| 1777739725 | 16.67° C | 66% | 1001.7 hPa | 0 mm | - | - | - |
| 1777739469 | 16.67° C | 66% | 1002 hPa | 0 mm | - | - | - |
| 1777739422 | 16.67° C | 66% | 1002 hPa | 0 mm | - | - | - |
| 1777739187 | 16.67° C | 63% | 1001.9 hPa | 0 mm | - | - | - |
| 1777739120 | 16.67° C | 63% | 1001.9 hPa | 0 mm | - | - | - |
| 1777738866 | 16.67° C | 62% | 1001.9 hPa | 0 mm | - | - | - |
| 1777738818 | 16.67° C | 62% | 1001.9 hPa | 0 mm | - | - | - |
| 1777738555 | 16.67° C | 62% | 1002 hPa | 0 mm | - | - | - |
| 1777738516 | 16.67° C | 62% | 1002 hPa | 0 mm | - | - | - |
| 1777737958 | 16.67° C | 66% | 1002.1 hPa | 0 mm | - | - | - |
| 1777737912 | 16.67° C | 66% | 1002.1 hPa | 0 mm | - | - | - |
| 1777737609 | 16.67° C | 66% | 1002.2 hPa | 0 mm | - | - | - |
| 1777737357 | 16.67° C | 68% | 1002.2 hPa | 0 mm | - | - | - |
| 1777737307 | 16.67° C | 68% | 1002.2 hPa | 0 mm | - | - | - |
| 1777737041 | 16.67° C | 68% | 1002.4 hPa | 0 mm | - | - | - |
| 1777737005 | 16.67° C | 68% | 1002.4 hPa | 0 mm | - | - | - |
| 1777736755 | 16.11° C | 66% | 1002.1 hPa | 0 mm | - | - | - |
| 1777736703 | 16.11° C | 66% | 1002.1 hPa | 0 mm | - | - | - |
| 1777736438 | 16.67° C | 69% | 1002.3 hPa | 0 mm | - | - | - |
| 1777736400 | 16.67° C | 69% | 1002.3 hPa | 0 mm | - | - | - |
* Rain since midnight (hover to see other rain measurements)
** Current wind speed in m/s (hover to see current wind gust speed)